Siga o Apolo11 no Facebook   Siga o Apolo11 no Twiiter
Ciência, Espaço e Tecnologia




Elementos Keplerianos formato Two Line

Para que um programa de rastreio possa saber a localização exata de qualquer satélite no espaço e assim poder rastreá-lo corretamente, é necessário que ele seja carregado com algumas informações.

Estas informações são chamadas de Elementos Orbitais ou Elementos Keplerianos e consistem em 2 linhas com dezenas de números. Esses números nada mais são que os parâmetros orbitais do satélite, tais como altitude, atitude, excentricidade da órbita, número de órbitas por dia, etc.

Com base nestas informações o programa é capaz de determinar com bastante exatidão a posição de qualquer satélite no espaço e nos informar em qual horário este estará dentro do alcance de nossa estação. Para que isso seja feito com precisão é necessário que os dados estejam sempre bem atualizadas.

Devido aos parâmetros orbitais serem descritos em 2 linhas, estes formato é também conhecido internacionalmente por 2line (leia-se Two Line”).

Para atualizar seu programa de rastreio basta copiar os dados disponibilizados e fornece-los ao programa. Nossos elementos orbitais são atualizados diariamente.

NOAATodos os satélites ambientais da série NOAA
30 DiasSatélites lançados nos últimos 30 dias
ISSSatélites e foguetes relacionados à Estação Espacial Internacional
HAMSatélites construídos por radiomadores
CUBESatélites tipo cubo, com 10 centímetros de lado
METEOSatélites voltados à previsão do tempo
EDUSatélites construídos e operados por universidades
VIS100 satélites mais brilhantes que podem ser vistos a olho nú



Satélites Educacionais
SAUDISAT 1C             
1 27607U 02058C   23266.58246170  .00002079  00000+0  30132-3 0  9998
2 27607  64.5565 323.2044 0058391 203.9104 155.9286 14.77648145116762
SAUDISAT 2              
1 28371U 04025F   23266.86313802  .00000703  00000+0  17343-3 0  9992
2 28371  98.4443 231.4445 0026470 118.8393 241.5466 14.55045530 20675
SAUDISAT 3              
1 31118U 07012B   23266.86245710  .00000694  00000+0  12434-3 0  9991
2 31118  98.0203 209.3516 0015434 155.9002 204.2929 14.69799182881217
PISAT                   
1 41784U 16059B   23266.62777528  .00001527  00000+0  29182-3 0  9997
2 41784  97.8634 295.6806 0032070 141.0395 219.3128 14.64941065373474
FLYING LAPTOP           
1 42831U 17042G   23266.52610579  .00002051  00000+0  19993-3 0  9997
2 42831  97.3880  98.3502 0011925 255.3900 104.5998 14.93430710337162
SALSAT                  
1 46495U 20068K   23266.44462198  .00006385  00000+0  40971-3 0  9996
2 46495  97.7778 215.5934 0016437 139.8641 220.3804 15.08733688163881


IMAGENS DE SATÉLITES !    Clique e conheça nosso Vídeo Workshop de sensoriamento remoto e imagens meteorológicas.
Apolo11.com - Todos os direitos reservados - 2001 - 2023
Política de Privacidade

"Quando estiveres entre lobos, deverás uivar como eles" - G. Gurdjeff